Regional Weather Roundup
Issued by NWS

Home | Current Version | Previous Version | Graphics & Text | Print | Product List | Glossary On
Versions: 1 2 3 4 5 6 7 8 9 10 11 12 13 14 15 16 17 18 19 20 21 22 23 24 25 26 27 28 29 30 31 32 33 34 35 36 37 38 39 40 41 42 43 44 45 46 47 48 49 50
000
ASUS43 KTOP 020859
RWRKS

WEATHER ROUNDUP FOR KANSAS
NATIONAL WEATHER SERVICE GOODLAND KS
400 AM CDT THU JUL 02 2015

NOTE:  "FAIR" INDICATES FEW OR NO CLOUDS BELOW 12,000 FEET WITH NO
SIGNIFICANT WEATHER AND/OR OBSTRUCTIONS TO VISIBILITY.

KSZ001>006-013>018-027>032-041>047-021000-
NORTHWEST KANSAS

CITY           SKY/WX    TMP DP  RH WIND       PRES   REMARKS
GOODLAND       PTCLDY    65  59  81 W7        30.03R
HAYS           PTCLDY    70  61  73 CALM      29.92R
HILL CITY      PTCLDY    73  65  75 N6        29.94R
RUSSELL        CLEAR     71  68  90 CALM      29.89R
$$

KSZ061>065-074>080-084>089-021000-
SOUTHWEST KANSAS

CITY           SKY/WX    TMP DP  RH WIND       PRES   REMARKS
DODGE CITY     CLOUDY    70  58  65 N5        29.92R
ELKHART          N/A     70  61  73 W6          N/A
GARDEN CITY    CLOUDY    71  59  65 NW5       29.95R
GREAT BEND     CLEAR     73  64  73 E7        29.91R
LIBERAL        CLOUDY    73  57  56 NW10        N/A
$$

KSZ066>073-081>083-090>101-021000-
SOUTHEAST KANSAS

CITY           SKY/WX    TMP DP  RH WIND       PRES   REMARKS
CHANUTE        CLEAR     73  70  90 E7        29.78F
COFFEYVILLE    CLEAR     81  69  67 SW9       29.77F
HUTCHINSON     PTCLDY    74  70  87 CALM      29.86R
MEDICINE LODGE   N/A     73  62  68 NE5       29.85S
NEWTON         MOCLDY    73  68  83 NE6       29.87R
PARSONS        CLEAR     76  71  85 S3        29.79F
WICHITA INTL   MOCLDY    76  72  87 E3        29.84R
WICHITA JABRA  PTCLDY    73  72  96 NE7       29.83S
WINFIELD       PTCLDY    74  69  85 NW7       29.83S
$$

KSZ007>012-019>026-033>040-048>060-102>105-021000-
NORTHEAST KANSAS

CITY           SKY/WX    TMP DP  RH WIND       PRES   REMARKS
CONCORDIA      CLOUDY    73  69  87 E10       29.88S
EMPORIA        PTCLDY    72  69  90 NE8       29.82S
LAWRENCE       PTCLDY    73  69  87 E5        29.84R
MANHATTAN      LGT RAIN  76  71  85 E9        29.85S
OLATHE IND     MOCLDY    72  70  93 NE6       29.84S
OLATHE EXE     CLOUDY    71  69  93 NE12      29.83F
SALINA         CLOUDY    78  71  79 E10       29.86R
TOPEKA BILLARD CLEAR     73  70  90 NE6       29.84S
TOPEKA FORBES  MOCLDY    76  71  85 NE8       29.84R
$$


USA.gov is the U.S. government's official web portal to all federal, state and local government web resources and services.